Regional Weather Roundup
Issued by NWS

Home | Current Version | Previous Version | Graphics & Text | Print | Product List | Glossary On
Versions: 1 2 3 4 5 6 7 8 9 10 11 12 13 14 15 16 17 18 19 20 21 22 23 24 25 26 27 28 29 30 31 32 33 34 35 36 37 38 39 40 41 42 43 44 45 46 47 48 49 50
000
ASUS43 KLMK 210402
RWRKY
KENTUCKY REGIONAL WEATHER ROUNDUP
NATIONAL WEATHER SERVICE LOUISVILLE KY
1200 AM EDT TUE OCT 21 2014

NOTE "FAIR" INDICATES FEW OR NO CLOUDS BELOW 12,000 FEET
WITH NO SIGNIFICANT WEATHER AND/OR OBSTRUCTIONS TO VISIBILITY.

KYZ001>023-026-027-061>063-070>075-210500-
WESTERN AND SOUTH CENTRAL KENTUCKY

CITY           SKY/WX    TMP DP  RH WIND       PRES   REMARKS
PADUCAH        CLEAR     53  52  96 W3        30.01R
HENDERSON      CLEAR     52  43  71 W5        30.00R
OWENSBORO      CLEAR     56  47  71 W3        29.99R
HOPKINSVILLE   MOCLDY    55  55  99 SW8       30.00S
BOWLING GREEN  PTCLDY    58  50  75 SW6       29.99S
GLASGOW        MOCLDY    55  50  82 SW3       29.98S
$$

KYZ024-025-028>034-038-045-046-053-210500-
NORTH CENTRAL KENTUCKY

CITY           SKY/WX    TMP DP  RH WIND       PRES   REMARKS
LOUISVILLE/SDF PTCLDY    58  52  80 SW9       29.94S
LOUISVILLE/LOU FOG       52  51  97 CALM      29.95R VSB 1/4
FORT KNOX      PTCLDY    54  50  88 W5        29.95S
$$

KYZ035>037-039>044-047>052-055>060-089>105-210500-
NORTHEAST KENTUCKY

CITY           SKY/WX    TMP DP  RH WIND       PRES   REMARKS
LEXINGTON      PTCLDY    56  50  80 SW10      29.94F
COVINGTON      PTCLDY    51  47  86 CALM      29.91S
FRANKFORT      CLEAR     53  50  89 SW7       29.93S
$$

KYZ054-064>069-076>088-106>120-210500-
SOUTHEAST KENTUCKY

CITY           SKY/WX    TMP DP  RH WIND       PRES   REMARKS
JACKSON        CLEAR     52  47  83 VRB3      29.97S
LONDON         CLEAR     50  46  86 S3        29.99S
SOMERSET       PTCLDY    46  46 100 CALM      30.00F
MIDDLESBORO    CLEAR     47  47  99 CALM      30.01S
MONTICELLO     PTCLDY    46  45  97 CALM      30.01S
$$




USA.gov is the U.S. government's official web portal to all federal, state and local government web resources and services.